THY877 VOMM-LTFM

Flight info

Callsign THY877
Flight time 8h 12m
Altitude 34000
Route DOLKI2A DOLKI Q8 AGELA G208 BBB/N0497F350 Z1 APANO/N0495F340 G451 AAE Z8 VIKIT P628 RK/N0489F360 G202 ZB L750 RANAH B449 DUKAN L850 BAKUV N701 LUSAL N199 EDATA/N0484F380 M11 MATAL DCT REBLO UR317 TBN UW71 ILHAN UT97 LETBU/N0494F280 T97 KANQO
Aircraft B77W/H-SDE1E2E3FGHIJ2J3J4J5M1RWXY/LB1D1

Departure

Time 2026-04-24 11:29
Airport Chennai International Airport (VOMM)

Arrival

Time 2026-04-24 19:41
Airport İstanbul Airport (LTFM)
Time Latitude Longitude Altitude Speed Heading
2026-04-24 10:53 12.98260 80.16054 57 ft 0 kts 159°
2026-04-24 11:19 12.98274 80.16050 57 ft 2 kts 169°
2026-04-24 11:19 12.98289 80.16048 56 ft 2 kts 186°
2026-04-24 11:19 12.98303 80.16052 56 ft 2 kts 199°
2026-04-24 11:19 12.98317 80.16058 56 ft 2 kts 212°
2026-04-24 11:20 12.98329 80.16067 56 ft 2 kts 225°
2026-04-24 11:20 12.98338 80.16078 56 ft 2 kts 239°
2026-04-24 11:20 12.98343 80.16087 56 ft 1 kts 248°
2026-04-24 11:20 12.98345 80.16092 56 ft 0 kts 250°
2026-04-24 11:24 12.98343 80.16087 56 ft 2 kts 250°
2026-04-24 11:25 12.98333 80.16058 55 ft 6 kts 249°
2026-04-24 11:25 12.98320 80.16026 55 ft 8 kts 247°
2026-04-24 11:25 12.98291 80.15940 55 ft 10 kts 269°
2026-04-24 11:25 12.98306 80.15856 54 ft 13 kts 285°
2026-04-24 11:26 12.98329 80.15768 54 ft 12 kts 285°
2026-04-24 11:26 12.98343 80.15715 54 ft 11 kts 285°
2026-04-24 11:26 12.98370 80.15616 54 ft 11 kts 286°
2026-04-24 11:26 12.98394 80.15527 53 ft 14 kts 287°
2026-04-24 11:27 12.98409 80.15434 52 ft 12 kts 263°
2026-04-24 11:27 12.98396 80.15380 53 ft 9 kts 259°
2026-04-24 11:27 12.98424 80.15341 52 ft 3 kts
2026-04-24 11:27 12.98436 80.15355 52 ft 2 kts 67°
2026-04-24 11:28 12.98437 80.15356 52 ft 1 kts 68°
2026-04-24 11:28 12.98556 80.15672 50 ft 82 kts 69°
2026-04-24 11:28 12.98851 80.16448 52 ft 147 kts 71°
2026-04-24 11:28 12.99123 80.17183 59 ft 183 kts 73°
2026-04-24 11:29 12.99822 80.18976 417 ft 223 kts 71°
2026-04-24 11:29 13.00403 80.20453 1291 ft 230 kts 71°
2026-04-24 11:29 13.00865 80.21420 2032 ft 230 kts 63°
2026-04-24 11:29 13.02412 80.22927 3243 ft 239 kts 26°
2026-04-24 11:30 13.03452 80.23227 3885 ft 241 kts
2026-04-24 11:30 13.05672 80.22793 4775 ft 255 kts 339°
2026-04-24 11:30 13.07336 80.21983 5090 ft 272 kts 335°
2026-04-24 11:30 13.09057 80.21113 5587 ft 279 kts 336°
2026-04-24 11:31 13.10236 80.20515 5728 ft 280 kts 336°
2026-04-24 11:31 13.12565 80.19332 5764 ft 279 kts 336°
2026-04-24 11:31 13.14316 80.18443 5765 ft 279 kts 336°
2026-04-24 11:31 13.16050 80.17561 5762 ft 279 kts 336°
2026-04-24 11:32 13.17791 80.16677 5768 ft 279 kts 336°
2026-04-24 11:32 13.19533 80.15791 5759 ft 278 kts 336°
2026-04-24 11:32 13.20681 80.15160 5750 ft 279 kts 328°
2026-04-24 11:32 13.22235 80.13947 5763 ft 282 kts 322°
2026-04-24 11:33 13.24239 80.12206 5767 ft 282 kts 322°
2026-04-24 11:33 13.25235 80.11341 5770 ft 282 kts 322°
2026-04-24 11:33 13.27234 80.09611 5769 ft 282 kts 322°
2026-04-24 11:33 13.28735 80.08315 5772 ft 282 kts 322°
2026-04-24 11:34 13.30210 80.06977 5794 ft 285 kts 316°
2026-04-24 11:34 13.31621 80.05505 6239 ft 290 kts 316°
2026-04-24 11:34 13.32548 80.04540 6834 ft 286 kts 317°
2026-04-24 11:34 13.34423 80.02620 7772 ft 288 kts 318°
2026-04-24 11:35 13.35848 80.01173 8368 ft 292 kts 319°
2026-04-24 11:35 13.37297 79.99705 9036 ft 294 kts 319°
2026-04-24 11:35 13.38770 79.98212 9660 ft 298 kts 319°
2026-04-24 11:35 13.40248 79.96714 10335 ft 300 kts 319°
2026-04-24 11:36 13.41715 79.95225 11052 ft 300 kts 319°
2026-04-24 11:36 13.43204 79.93716 11702 ft 303 kts 319°
2026-04-24 11:36 13.44200 79.92706 12144 ft 304 kts 319°
2026-04-24 11:36 13.45715 79.91170 12817 ft 307 kts 319°
2026-04-24 11:37 13.47224 79.89638 13505 ft 309 kts 319°
2026-04-24 11:37 13.49294 79.87540 14293 ft 317 kts 318°
2026-04-24 11:37 13.50868 79.85941 14911 ft 321 kts 317°
2026-04-24 11:37 13.52460 79.84325 15524 ft 326 kts 317°
2026-04-24 11:38 13.54094 79.82665 16103 ft 330 kts 316°
2026-04-24 11:38 13.55738 79.80995 16712 ft 335 kts 316°
2026-04-24 11:38 13.57325 79.79264 17259 ft 340 kts 309°
2026-04-24 11:38 13.58790 79.77338 17879 ft 343 kts 307°
2026-04-24 11:39 13.60255 79.75376 18509 ft 346 kts 307°
2026-04-24 11:39 13.61726 79.73409 19124 ft 349 kts 307°
2026-04-24 11:39 13.63199 79.71443 19735 ft 352 kts 307°
2026-04-24 11:39 13.64705 79.69433 20177 ft 361 kts 307°
2026-04-24 11:40 13.66261 79.67357 20398 ft 376 kts 307°
2026-04-24 11:40 13.67906 79.65161 20641 ft 391 kts 307°
2026-04-24 11:40 13.69597 79.62903 20897 ft 406 kts 306°
2026-04-24 11:40 13.71343 79.60572 21119 ft 421 kts 306°
2026-04-24 11:41 13.73139 79.58174 21516 ft 430 kts 306°
2026-04-24 11:41 13.74982 79.55713 22146 ft 434 kts 306°
2026-04-24 11:41 13.76814 79.53265 22801 ft 436 kts 306°
2026-04-24 11:41 13.78049 79.51616 23231 ft 437 kts 306°
2026-04-24 11:42 13.79897 79.49146 23866 ft 439 kts 305°
2026-04-24 11:42 13.82391 79.45811 24661 ft 442 kts 304°
2026-04-24 11:42 13.83642 79.44138 25041 ft 443 kts 304°
2026-04-24 11:42 13.85512 79.41635 25597 ft 446 kts 304°
2026-04-24 11:43 13.87419 79.39083 26152 ft 448 kts 304°
2026-04-24 11:43 13.89954 79.35689 26902 ft 451 kts 303°
2026-04-24 11:43 13.91864 79.33131 27465 ft 452 kts 303°
2026-04-24 11:43 13.93782 79.30561 28026 ft 454 kts 302°
2026-04-24 11:44 13.95659 79.27962 28565 ft 455 kts 301°
2026-04-24 11:44 13.96892 79.26229 28917 ft 456 kts 301°
2026-04-24 11:44 13.99409 79.22691 29552 ft 460 kts 301°
2026-04-24 11:44 14.01303 79.20026 29983 ft 464 kts 300°
2026-04-24 11:45 14.03208 79.17345 30441 ft 467 kts 300°
2026-04-24 11:45 14.04480 79.15555 30733 ft 469 kts 300°
2026-04-24 11:45 14.07052 79.11934 31298 ft 472 kts 300°
2026-04-24 11:45 14.09000 79.09190 31700 ft 475 kts 300°
2026-04-24 11:46 14.10950 79.06441 32085 ft 478 kts 300°
2026-04-24 11:46 14.12922 79.03661 32420 ft 481 kts 299°
2026-04-24 11:46 14.14243 79.01798 32633 ft 484 kts 299°
2026-04-24 11:46 14.16878 78.98083 33179 ft 486 kts 299°
2026-04-24 11:47 14.18883 78.95254 33670 ft 487 kts 299°
2026-04-24 11:47 14.20204 78.93390 33788 ft 489 kts 299°
2026-04-24 11:47 14.24890 78.86779 33789 ft 482 kts 299°
2026-04-24 11:48 14.28857 78.81175 33795 ft 484 kts 299°
2026-04-24 11:48 14.32827 78.75565 33782 ft 483 kts 299°
2026-04-24 11:49 14.36815 78.69925 33782 ft 484 kts 299°
2026-04-24 11:49 14.40765 78.64335 33772 ft 483 kts 299°
2026-04-24 11:50 14.44071 78.59653 33773 ft 483 kts 299°
2026-04-24 11:50 14.48674 78.53130 33778 ft 483 kts 299°
2026-04-24 11:51 14.51982 78.48439 33782 ft 482 kts 299°
2026-04-24 11:51 14.56583 78.41910 33773 ft 482 kts 299°
2026-04-24 11:52 14.60537 78.36294 33761 ft 482 kts 299°
2026-04-24 11:52 14.63817 78.31633 33771 ft 484 kts 298°
2026-04-24 11:53 14.68428 78.25075 33774 ft 483 kts 298°
2026-04-24 11:53 14.71718 78.20393 33772 ft 482 kts 298°
2026-04-24 11:54 14.76310 78.13854 33789 ft 482 kts 298°
2026-04-24 11:54 14.80258 78.08227 33788 ft 483 kts 298°
2026-04-24 11:55 14.84198 78.02608 33787 ft 483 kts 298°
2026-04-24 11:55 14.88164 77.96948 33787 ft 483 kts 298°
2026-04-24 11:56 14.92091 77.91339 33786 ft 482 kts 298°
2026-04-24 11:56 14.95384 77.86633 33793 ft 483 kts 298°
2026-04-24 11:57 14.99962 77.80086 33793 ft 483 kts 298°
2026-04-24 11:57 15.03890 77.74464 33802 ft 482 kts 298°
2026-04-24 11:58 15.07835 77.68814 33808 ft 483 kts 298°
2026-04-24 11:58 15.11749 77.63202 33804 ft 484 kts 298°
2026-04-24 11:59 15.15693 77.57546 33806 ft 482 kts 298°
2026-04-24 11:59 15.19635 77.51886 33809 ft 485 kts 298°
2026-04-24 12:00 15.23549 77.46265 33810 ft 483 kts 298°
2026-04-24 12:00 15.27486 77.40604 33808 ft 484 kts 298°
2026-04-24 12:01 15.31408 77.34963 33804 ft 484 kts 298°
2026-04-24 12:01 15.35342 77.29296 33819 ft 484 kts 298°
2026-04-24 12:02 15.39270 77.23640 33817 ft 483 kts 298°
2026-04-24 12:02 15.43208 77.17960 33829 ft 484 kts 298°
2026-04-24 12:03 15.47139 77.12288 33837 ft 484 kts 298°
2026-04-24 12:03 15.51088 77.06587 33836 ft 485 kts 298°
2026-04-24 12:04 15.55012 77.00915 33828 ft 485 kts 298°
2026-04-24 12:04 15.58262 76.96217 33823 ft 485 kts 297°
2026-04-24 12:05 15.62869 76.89549 33829 ft 483 kts 298°
2026-04-24 12:05 15.66792 76.83867 33817 ft 485 kts 297°
2026-04-24 12:06 15.70712 76.78185 33827 ft 485 kts 298°
2026-04-24 12:06 15.74621 76.72517 33818 ft 484 kts 298°
2026-04-24 12:07 15.78546 76.66818 33817 ft 486 kts 298°
2026-04-24 12:07 15.81807 76.62081 33818 ft 483 kts 298°
2026-04-24 12:08 15.86371 76.55444 33828 ft 486 kts 298°
2026-04-24 12:08 15.90301 76.49728 33845 ft 484 kts 298°
2026-04-24 12:09 15.93553 76.44994 33854 ft 484 kts 298°
2026-04-24 12:09 15.98134 76.38317 33867 ft 486 kts 298°
2026-04-24 12:10 16.02042 76.32617 33888 ft 487 kts 297°
2026-04-24 12:11 16.07923 76.24035 33892 ft 485 kts 297°
2026-04-24 12:11 16.11850 76.18298 33873 ft 483 kts 297°
2026-04-24 12:12 16.15734 76.12616 33874 ft 484 kts 297°
2026-04-24 12:12 16.19626 76.06921 33874 ft 485 kts 297°
2026-04-24 12:13 16.23541 76.01186 33870 ft 484 kts 297°
2026-04-24 12:13 16.27433 75.95483 33870 ft 483 kts 297°
2026-04-24 12:14 16.30687 75.90709 33873 ft 484 kts 297°
2026-04-24 12:14 16.35221 75.84053 33878 ft 484 kts 297°
2026-04-24 12:15 16.38437 75.79329 33882 ft 483 kts 297°
2026-04-24 12:15 16.42335 75.73597 33883 ft 483 kts 297°
2026-04-24 12:16 16.46851 75.66952 33879 ft 482 kts 297°
2026-04-24 12:16 16.50724 75.61248 33875 ft 484 kts 297°
2026-04-24 12:17 16.54630 75.55490 33875 ft 484 kts 297°
2026-04-24 12:17 16.58502 75.49779 33874 ft 484 kts 297°
2026-04-24 12:18 16.61973 75.45190 33875 ft 492 kts 306°
2026-04-24 12:18 16.66838 75.40120 33883 ft 494 kts 307°
2026-04-24 12:19 16.72522 75.34235 33888 ft 493 kts 307°
2026-04-24 12:19 16.77412 75.29157 33894 ft 493 kts 307°
2026-04-24 12:20 16.81445 75.24960 33898 ft 494 kts 307°
2026-04-24 12:20 16.87131 75.19039 33906 ft 491 kts 307°
2026-04-24 12:21 16.91968 75.13992 33910 ft 494 kts 307°
2026-04-24 12:21 16.96830 75.08919 33915 ft 492 kts 307°
2026-04-24 12:22 17.01683 75.03847 33915 ft 494 kts 307°
2026-04-24 12:22 17.06519 74.98791 33908 ft 493 kts 307°
2026-04-24 12:23 17.11384 74.93699 33896 ft 493 kts 307°
2026-04-24 12:23 17.16222 74.88633 33904 ft 493 kts 307°
2026-04-24 12:24 17.20294 74.84363 33910 ft 495 kts 307°
2026-04-24 12:24 17.25949 74.78433 33925 ft 493 kts 307°
2026-04-24 12:25 17.30771 74.73371 33933 ft 491 kts 307°
2026-04-24 12:25 17.35602 74.68294 33926 ft 493 kts 307°
2026-04-24 12:26 17.40426 74.63224 33925 ft 490 kts 306°
2026-04-24 12:26 17.45253 74.58143 33922 ft 492 kts 306°
2026-04-24 12:27 17.50069 74.53071 33923 ft 492 kts 306°
2026-04-24 12:27 17.54097 74.48826 33921 ft 491 kts 307°
2026-04-24 12:28 17.59698 74.42918 33925 ft 491 kts 307°
2026-04-24 12:28 17.64514 74.37833 33932 ft 493 kts 307°
2026-04-24 12:29 17.69344 74.32731 33951 ft 490 kts 306°
2026-04-24 12:29 17.73362 74.28484 33957 ft 490 kts 306°
2026-04-24 12:30 17.78968 74.22549 33963 ft 493 kts 306°
2026-04-24 12:30 17.83783 74.17451 33962 ft 490 kts 306°
2026-04-24 12:31 17.88599 74.12345 33973 ft 492 kts 306°
2026-04-24 12:31 17.93433 74.07216 33984 ft 494 kts 306°
2026-04-24 12:32 17.98241 74.02114 33981 ft 490 kts 306°
2026-04-24 12:32 18.03064 73.96986 33986 ft 495 kts 306°
2026-04-24 12:33 18.07943 73.91928 33977 ft 491 kts 307°
2026-04-24 12:33 18.12870 73.86867 33953 ft 491 kts 307°
2026-04-24 12:34 18.17726 73.81873 33954 ft 490 kts 307°
2026-04-24 12:34 18.22606 73.76842 33936 ft 491 kts 307°
2026-04-24 12:35 18.27469 73.71825 33921 ft 490 kts 307°
2026-04-24 12:35 18.32341 73.66793 33920 ft 493 kts 307°
2026-04-24 12:36 18.37206 73.61767 33904 ft 489 kts 307°
2026-04-24 12:36 18.42074 73.56729 33895 ft 489 kts 307°
2026-04-24 12:37 18.46911 73.51721 33892 ft 488 kts 308°
2026-04-24 12:37 18.51750 73.46706 33890 ft 488 kts 308°
2026-04-24 12:38 18.56611 73.41663 33860 ft 489 kts 308°
2026-04-24 12:38 18.61440 73.36650 33826 ft 488 kts 308°
2026-04-24 12:39 18.71118 73.26591 33777 ft 489 kts 308°
2026-04-24 12:40 18.75978 73.21531 33749 ft 489 kts 308°
2026-04-24 12:40 18.80806 73.16502 33752 ft 491 kts 308°
2026-04-24 12:41 18.85653 73.11449 33748 ft 488 kts 308°
2026-04-24 12:41 18.90476 73.06416 33745 ft 491 kts 309°
2026-04-24 12:42 18.95338 73.01340 33740 ft 488 kts 309°
2026-04-24 12:42 19.00162 72.96298 33741 ft 488 kts 309°
2026-04-24 12:43 19.05332 72.91626 33739 ft 494 kts 322°
2026-04-24 12:43 19.08376 72.89875 33738 ft 505 kts 330°
2026-04-24 12:43 19.11710 72.88593 33735 ft 508 kts 340°
2026-04-24 12:44 19.18793 72.87652 33728 ft 524 kts 357°
2026-04-24 12:44 19.24868 72.87949 33737 ft 524 kts 359°
2026-04-24 12:45 19.33351 72.88394 33734 ft 520 kts 359°
2026-04-24 12:45 19.40629 72.88744 33738 ft 519 kts 359°
2026-04-24 12:46 19.47900 72.89076 33741 ft 519 kts 359°
2026-04-24 12:46 19.55091 72.89397 33740 ft 515 kts 359°
2026-04-24 12:47 19.62255 72.89712 33745 ft 513 kts 359°
2026-04-24 12:47 19.68190 72.89970 33754 ft 510 kts 359°
2026-04-24 12:48 19.76510 72.90331 33767 ft 513 kts 359°
2026-04-24 12:48 19.83673 72.90640 33780 ft 511 kts 359°
2026-04-24 12:49 19.90749 72.90946 33779 ft 510 kts 359°
2026-04-24 12:49 19.97848 72.91253 33795 ft 510 kts
2026-04-24 12:50 20.04900 72.91558 33793 ft 505 kts 360°
2026-04-24 12:50 20.11954 72.91863 33785 ft 504 kts
2026-04-24 12:51 20.18948 72.92167 33766 ft 503 kts 360°
2026-04-24 12:51 20.26022 72.92473 33765 ft 505 kts
2026-04-24 12:52 20.32993 72.92776 33758 ft 504 kts
2026-04-24 12:52 20.40026 72.93081 33747 ft 501 kts 360°
2026-04-24 12:53 20.46988 72.93383 33751 ft 502 kts
2026-04-24 12:53 20.53985 72.93688 33748 ft 498 kts
2026-04-24 12:54 20.60936 72.93990 33755 ft 499 kts
2026-04-24 12:54 20.67845 72.94292 33752 ft 499 kts
2026-04-24 12:55 20.73650 72.94545 33751 ft 498 kts
2026-04-24 12:55 20.81752 72.94865 33744 ft 496 kts
2026-04-24 12:56 20.88684 72.95113 33752 ft 495 kts
2026-04-24 12:56 20.95560 72.95361 33750 ft 494 kts
2026-04-24 12:57 21.01326 72.95571 33752 ft 495 kts
2026-04-24 12:57 21.09362 72.95864 33749 ft 492 kts
2026-04-24 12:58 21.16280 72.96117 33755 ft 494 kts
2026-04-24 12:58 21.23147 72.96420 33758 ft 491 kts
2026-04-24 12:59 21.30004 72.96786 33751 ft 493 kts
2026-04-24 12:59 21.36833 72.97147 33756 ft 489 kts
2026-04-24 13:00 21.42516 72.97446 33762 ft 489 kts
2026-04-24 13:00 21.49307 72.97801 33752 ft 488 kts
2026-04-24 13:01 21.57279 72.98124 33747 ft 487 kts 356°
2026-04-24 13:01 21.63928 72.96979 33736 ft 483 kts 347°
2026-04-24 13:02 21.70525 72.95418 33741 ft 484 kts 347°
2026-04-24 13:02 21.75997 72.94122 33735 ft 483 kts 347°
2026-04-24 13:03 21.83682 72.92303 33727 ft 482 kts 347°
2026-04-24 13:03 21.90215 72.90755 33728 ft 483 kts 347°
2026-04-24 13:04 21.96804 72.89192 33726 ft 480 kts 347°
2026-04-24 13:04 22.03346 72.87640 33724 ft 480 kts 347°
2026-04-24 13:05 22.09879 72.86088 33727 ft 480 kts 347°
2026-04-24 13:05 22.16425 72.84531 33731 ft 479 kts 347°
2026-04-24 13:06 22.22931 72.82983 33730 ft 477 kts 347°
2026-04-24 13:06 22.29416 72.81438 33737 ft 477 kts 347°
2026-04-24 13:07 22.35893 72.79894 33734 ft 477 kts 347°
2026-04-24 13:07 22.42398 72.78342 33743 ft 477 kts 348°
2026-04-24 13:08 22.48900 72.76789 33739 ft 476 kts 348°
2026-04-24 13:08 22.55377 72.75240 33748 ft 475 kts 348°
2026-04-24 13:09 22.65057 72.72923 33751 ft 476 kts 348°
2026-04-24 13:09 22.71524 72.71373 33746 ft 473 kts 348°
2026-04-24 13:10 22.77989 72.69822 33740 ft 475 kts 348°
2026-04-24 13:10 22.84438 72.68273 33738 ft 473 kts 348°
2026-04-24 13:11 22.90847 72.66733 33740 ft 472 kts 348°
2026-04-24 13:11 22.97267 72.65188 33736 ft 473 kts 348°
2026-04-24 13:12 23.03694 72.63640 33731 ft 471 kts 348°
2026-04-24 13:12 23.10089 72.62139 33741 ft 470 kts 349°
2026-04-24 13:13 23.16544 72.60727 33748 ft 471 kts 349°
2026-04-24 13:13 23.22968 72.59318 33744 ft 468 kts 349°
2026-04-24 13:14 23.29353 72.57911 33754 ft 471 kts 349°
2026-04-24 13:14 23.35764 72.56496 33752 ft 469 kts 349°
2026-04-24 13:15 23.42168 72.55080 33757 ft 469 kts 349°
2026-04-24 13:15 23.48562 72.53664 33751 ft 467 kts 349°
2026-04-24 13:16 23.54948 72.52248 33754 ft 468 kts 349°
2026-04-24 13:16 23.61353 72.50827 33756 ft 466 kts 349°
2026-04-24 13:17 23.67739 72.49408 33764 ft 467 kts 349°
2026-04-24 13:17 23.74115 72.47990 33765 ft 466 kts 349°
2026-04-24 13:18 23.80488 72.46571 33769 ft 466 kts 349°
2026-04-24 13:18 23.86840 72.45156 33766 ft 466 kts 349°
2026-04-24 13:19 23.93230 72.43731 33734 ft 465 kts 349°
2026-04-24 13:19 23.99569 72.42316 33784 ft 466 kts 349°
2026-04-24 13:20 24.04844 72.41140 33786 ft 463 kts 349°
2026-04-24 13:20 24.12245 72.39505 33796 ft 464 kts 349°
2026-04-24 13:21 24.18590 72.38101 33799 ft 464 kts 349°
2026-04-24 13:21 24.24941 72.36694 33797 ft 463 kts 349°
2026-04-24 13:22 24.30259 72.35516 33793 ft 463 kts 349°
2026-04-24 13:22 24.36581 72.34113 33786 ft 462 kts 349°
2026-04-24 13:23 24.43954 72.32474 33783 ft 463 kts 349°
2026-04-24 13:23 24.50268 72.31069 33786 ft 463 kts 349°
2026-04-24 13:24 24.55523 72.29899 33788 ft 463 kts 349°
2026-04-24 13:24 24.62896 72.28256 33787 ft 462 kts 349°
2026-04-24 13:25 24.68164 72.27080 33788 ft 461 kts 349°
2026-04-24 13:25 24.75487 72.25445 33790 ft 462 kts 349°
2026-04-24 13:26 24.81806 72.24036 33783 ft 462 kts 349°
2026-04-24 13:26 24.88103 72.22641 33773 ft 461 kts 349°
2026-04-24 13:27 24.94460 72.21230 33768 ft 462 kts 349°
2026-04-24 13:27 24.99678 72.20088 33755 ft 460 kts 351°
2026-04-24 13:28 25.07171 72.19173 33754 ft 460 kts 354°
2026-04-24 13:28 25.13538 72.18456 33759 ft 461 kts 354°
2026-04-24 13:29 25.19946 72.17731 33753 ft 460 kts 354°
2026-04-24 13:29 25.25272 72.17127 33753 ft 460 kts 354°
2026-04-24 13:30 25.32700 72.16281 33753 ft 460 kts 354°
2026-04-24 13:30 25.39047 72.15557 33755 ft 461 kts 354°
2026-04-24 13:31 25.44365 72.14951 33756 ft 460 kts 354°
2026-04-24 13:31 25.51803 72.14101 33755 ft 460 kts 354°
2026-04-24 13:32 25.57113 72.13493 33747 ft 461 kts 354°
2026-04-24 13:32 25.64536 72.12643 33744 ft 459 kts 354°
2026-04-24 13:33 25.70902 72.11916 33739 ft 458 kts 354°
2026-04-24 13:33 25.77244 72.11205 33735 ft 460 kts 354°
2026-04-24 13:34 25.82583 72.10607 33735 ft 460 kts 354°
2026-04-24 13:34 25.89989 72.09775 33734 ft 458 kts 354°
2026-04-24 13:35 25.96337 72.09061 33734 ft 458 kts 354°
2026-04-24 13:35 26.02676 72.08347 33734 ft 458 kts 354°
2026-04-24 13:36 26.09049 72.07629 33740 ft 459 kts 354°
2026-04-24 13:36 26.15411 72.06910 33756 ft 460 kts 354°
2026-04-24 13:37 26.20696 72.06313 33757 ft 459 kts 354°
2026-04-24 13:37 26.28123 72.05472 33764 ft 458 kts 354°
2026-04-24 13:38 26.34476 72.04752 33767 ft 459 kts 354°
2026-04-24 13:38 26.40862 72.04028 33771 ft 460 kts 354°
2026-04-24 13:39 26.47226 72.03306 33778 ft 459 kts 353°
2026-04-24 13:39 26.53573 72.02585 33777 ft 462 kts 353°
2026-04-24 13:40 26.59980 72.01856 33776 ft 461 kts 353°
2026-04-24 13:40 26.66378 72.01127 33773 ft 462 kts 353°
2026-04-24 13:41 26.71750 72.00514 33778 ft 462 kts 353°
2026-04-24 13:41 26.79199 71.99663 33778 ft 462 kts 353°
2026-04-24 13:42 26.85628 71.98929 33785 ft 464 kts 353°
2026-04-24 13:42 26.92055 71.98193 33787 ft 464 kts 353°
2026-04-24 13:43 26.98479 71.97457 33785 ft 465 kts 353°
2026-04-24 13:43 27.04947 71.96716 33783 ft 462 kts 353°
2026-04-24 13:44 27.11376 71.95978 33781 ft 462 kts 353°
2026-04-24 13:44 27.16710 71.95364 33778 ft 464 kts 353°
2026-04-24 13:45 27.24201 71.94502 33766 ft 462 kts 353°
2026-04-24 13:45 27.30589 71.93766 33761 ft 463 kts 353°
2026-04-24 13:46 27.37019 71.93024 33755 ft 462 kts 353°
2026-04-24 13:46 27.43404 71.92287 33755 ft 461 kts 353°
2026-04-24 13:47 27.49791 71.91548 33745 ft 460 kts 352°
2026-04-24 13:47 27.56099 71.90556 33734 ft 460 kts 344°
2026-04-24 13:48 27.62012 71.87826 33730 ft 457 kts 329°
2026-04-24 13:48 27.66977 71.83350 33721 ft 459 kts 314°
2026-04-24 13:49 27.70628 71.77515 33723 ft 461 kts 301°
2026-04-24 13:49 27.73638 71.71141 33723 ft 462 kts 300°
2026-04-24 13:50 27.76642 71.64743 33725 ft 461 kts 300°
2026-04-24 13:50 27.79638 71.58356 33724 ft 462 kts 300°
2026-04-24 13:51 27.82632 71.51966 33727 ft 462 kts 300°
2026-04-24 13:51 27.85641 71.45532 33725 ft 461 kts 300°
2026-04-24 13:52 27.88567 71.39135 33725 ft 462 kts 298°
2026-04-24 13:52 27.91379 71.32649 33722 ft 461 kts 298°
2026-04-24 13:53 27.94206 71.26130 33726 ft 462 kts 298°
2026-04-24 13:53 27.97032 71.19614 33726 ft 461 kts 298°
2026-04-24 13:54 27.99844 71.13127 33721 ft 461 kts 298°
2026-04-24 13:54 28.02655 71.06636 33724 ft 459 kts 298°
2026-04-24 13:55 28.05452 71.00168 33720 ft 462 kts 298°
2026-04-24 13:55 28.08258 70.93668 33722 ft 461 kts 298°
2026-04-24 13:56 28.10598 70.88243 33720 ft 459 kts 298°
2026-04-24 13:56 28.13868 70.80647 33726 ft 460 kts 298°
2026-04-24 13:57 28.16653 70.74165 33724 ft 459 kts 298°
2026-04-24 13:57 28.19441 70.67668 33720 ft 461 kts 298°
2026-04-24 13:58 28.22236 70.61142 33717 ft 460 kts 298°
2026-04-24 13:58 28.25019 70.54636 33713 ft 461 kts 298°
2026-04-24 13:59 28.27800 70.48121 33709 ft 460 kts 298°
2026-04-24 13:59 28.30560 70.41647 33710 ft 457 kts 298°
2026-04-24 14:00 28.32934 70.36243 33704 ft 456 kts 302°
2026-04-24 14:00 28.37613 70.29813 33713 ft 454 kts 319°
2026-04-24 14:01 28.42865 70.25937 33714 ft 454 kts 334°
2026-04-24 14:01 28.48918 70.23740 33721 ft 456 kts 344°
2026-04-24 14:02 28.55085 70.22056 33716 ft 457 kts 344°
2026-04-24 14:02 28.61265 70.20342 33717 ft 456 kts 344°
2026-04-24 14:03 28.67448 70.18611 33715 ft 456 kts 343°
2026-04-24 14:03 28.73602 70.16877 33713 ft 458 kts 343°
2026-04-24 14:04 28.79782 70.15130 33704 ft 456 kts 343°
2026-04-24 14:04 28.84931 70.13670 33704 ft 456 kts 343°
2026-04-24 14:05 28.92114 70.11632 33701 ft 455 kts 343°
2026-04-24 14:05 28.98311 70.09868 33704 ft 459 kts 343°
2026-04-24 14:06 29.04452 70.08119 33707 ft 456 kts 342°
2026-04-24 14:06 29.10709 70.06335 33728 ft 459 kts 343°
2026-04-24 14:07 29.16835 70.04586 33742 ft 454 kts 343°
2026-04-24 14:07 29.22997 70.02824 33770 ft 457 kts 343°
2026-04-24 14:08 29.29228 70.01040 33777 ft 457 kts 343°
2026-04-24 14:08 29.35412 69.99267 33802 ft 458 kts 342°
2026-04-24 14:09 29.41585 69.97495 33810 ft 458 kts 342°
2026-04-24 14:09 29.47783 69.95715 33847 ft 457 kts 342°
2026-04-24 14:10 29.53929 69.93946 33859 ft 456 kts 342°
2026-04-24 14:10 29.60096 69.92169 33890 ft 458 kts 342°
2026-04-24 14:11 29.66282 69.90385 33920 ft 458 kts 342°
2026-04-24 14:12 29.74541 69.87999 33975 ft 458 kts 342°
2026-04-24 14:12 29.81747 69.85914 34020 ft 459 kts 342°
2026-04-24 14:13 29.87934 69.84122 34057 ft 456 kts 342°
2026-04-24 14:13 29.94068 69.82342 34092 ft 457 kts 342°
2026-04-24 14:14 30.00290 69.80534 34132 ft 460 kts 342°
2026-04-24 14:14 30.09561 69.77837 34129 ft 459 kts 342°
2026-04-24 14:15 30.15774 69.76026 34135 ft 458 kts 342°
2026-04-24 14:15 30.20914 69.74527 34151 ft 457 kts 342°
2026-04-24 14:16 30.28134 69.72504 34160 ft 458 kts 345°
2026-04-24 14:17 30.37504 69.70248 34156 ft 459 kts 344°
2026-04-24 14:17 30.46890 69.67963 34162 ft 459 kts 343°
2026-04-24 14:18 30.53155 69.66428 34161 ft 459 kts 344°
2026-04-24 14:18 30.59376 69.64901 34170 ft 456 kts 344°
2026-04-24 14:19 30.65622 69.63363 34178 ft 460 kts 344°
2026-04-24 14:19 30.71905 69.61814 34188 ft 458 kts 344°
2026-04-24 14:20 30.78138 69.60276 34196 ft 457 kts 343°
2026-04-24 14:20 30.84358 69.58738 34215 ft 459 kts 343°
2026-04-24 14:21 30.90605 69.57191 34226 ft 459 kts 343°
2026-04-24 14:21 30.96835 69.55647 34234 ft 457 kts 343°
2026-04-24 14:22 31.03084 69.54095 34232 ft 459 kts 343°
2026-04-24 14:23 31.12426 69.51771 34245 ft 460 kts 343°
2026-04-24 14:23 31.17645 69.50472 34247 ft 458 kts 343°
2026-04-24 14:24 31.24972 69.48645 34259 ft 458 kts 343°
2026-04-24 14:24 31.31096 69.46788 34237 ft 453 kts 334°
2026-04-24 14:25 31.35700 69.43955 34215 ft 444 kts 322°
2026-04-24 14:25 31.40855 69.38219 34207 ft 440 kts 307°
2026-04-24 14:26 31.44018 69.33572 34216 ft 439 kts 306°
2026-04-24 14:26 31.48421 69.27069 34230 ft 437 kts 306°
2026-04-24 14:27 31.52189 69.21497 34246 ft 436 kts 306°
2026-04-24 14:27 31.55955 69.15915 34267 ft 438 kts 306°
2026-04-24 14:28 31.59707 69.10349 34288 ft 434 kts 306°
2026-04-24 14:28 31.63467 69.04761 34283 ft 438 kts 306°
2026-04-24 14:29 31.67213 68.99192 34279 ft 435 kts 306°
2026-04-24 14:29 31.71105 68.93751 34288 ft 438 kts 307°
2026-04-24 14:30 31.74375 68.89200 34290 ft 437 kts 307°
2026-04-24 14:30 31.78941 68.82821 34297 ft 439 kts 307°
2026-04-24 14:31 31.82822 68.77383 34310 ft 436 kts 307°
2026-04-24 14:31 31.86725 68.71903 34315 ft 438 kts 307°
2026-04-24 14:32 31.90608 68.66443 34326 ft 437 kts 307°
2026-04-24 14:32 31.94501 68.60959 34327 ft 437 kts 307°
2026-04-24 14:33 31.98393 68.55468 34354 ft 436 kts 307°
2026-04-24 14:33 32.02265 68.49997 34356 ft 437 kts 307°
2026-04-24 14:34 32.06143 68.44510 34366 ft 436 kts 307°
2026-04-24 14:34 32.10020 68.39017 34377 ft 436 kts 307°
2026-04-24 14:35 32.13889 68.33526 34393 ft 435 kts 306°
2026-04-24 14:35 32.17745 68.28046 34391 ft 434 kts 306°
2026-04-24 14:36 32.21473 68.22739 34383 ft 435 kts 306°
2026-04-24 14:36 32.25158 68.17488 34377 ft 432 kts 306°
2026-04-24 14:37 32.29002 68.12000 34383 ft 435 kts 306°
2026-04-24 14:37 32.32196 68.07436 34380 ft 432 kts 306°
2026-04-24 14:38 32.36652 68.01058 34370 ft 434 kts 306°
2026-04-24 14:38 32.39843 67.96484 34369 ft 434 kts 306°
2026-04-24 14:39 32.43666 67.90997 34357 ft 432 kts 306°
2026-04-24 14:39 32.48137 67.84570 34361 ft 433 kts 306°
2026-04-24 14:40 32.51324 67.80017 34367 ft 431 kts 308°
2026-04-24 14:40 32.55988 67.73818 34382 ft 432 kts 308°
2026-04-24 14:41 32.59961 67.68529 34372 ft 431 kts 308°
2026-04-24 14:41 32.63263 67.64116 34391 ft 431 kts 308°
2026-04-24 14:42 32.67235 67.58796 34387 ft 432 kts 308°
2026-04-24 14:42 32.71878 67.52563 34409 ft 432 kts 308°
2026-04-24 14:43 32.75821 67.47260 34412 ft 431 kts 308°
2026-04-24 14:43 32.79086 67.42800 34427 ft 430 kts 306°
2026-04-24 14:44 32.83525 67.36437 34418 ft 431 kts 306°
2026-04-24 14:44 32.87337 67.30973 34461 ft 430 kts 306°
2026-04-24 14:45 32.91138 67.25524 34511 ft 428 kts 306°
2026-04-24 14:45 32.94944 67.20064 34481 ft 430 kts 306°
2026-04-24 14:46 32.98751 67.14598 34502 ft 428 kts 306°
2026-04-24 14:46 33.02542 67.09145 34509 ft 430 kts 306°
2026-04-24 14:47 33.05716 67.04577 34502 ft 429 kts 306°
2026-04-24 14:47 33.09517 66.99097 34505 ft 429 kts 306°
2026-04-24 14:48 33.13317 66.93609 34503 ft 430 kts 306°
2026-04-24 14:48 33.17724 66.87237 34500 ft 428 kts 306°
2026-04-24 14:49 33.21512 66.81748 34495 ft 429 kts 306°
2026-04-24 14:49 33.25290 66.76269 34470 ft 428 kts 305°
2026-04-24 14:50 33.28458 66.71665 34453 ft 429 kts 305°
2026-04-24 14:50 33.32849 66.65277 34461 ft 426 kts 305°
2026-04-24 14:51 33.36610 66.59798 34459 ft 427 kts 305°
2026-04-24 14:51 33.40367 66.54314 34456 ft 425 kts 305°
2026-04-24 14:52 33.44090 66.48872 34441 ft 423 kts 306°
2026-04-24 14:52 33.47814 66.43414 34424 ft 426 kts 305°
2026-04-24 14:53 33.51530 66.37940 34397 ft 423 kts 305°
2026-04-24 14:53 33.55244 66.32462 34421 ft 424 kts 304°
2026-04-24 14:54 33.58335 66.27896 34426 ft 424 kts 305°
2026-04-24 14:54 33.62649 66.21514 34406 ft 424 kts 304°
2026-04-24 14:55 33.65753 66.16915 34429 ft 425 kts 305°
2026-04-24 14:55 33.70046 66.10548 34436 ft 421 kts 304°
2026-04-24 14:56 33.73116 66.05985 34431 ft 423 kts 304°
2026-04-24 14:56 33.76793 66.00514 34428 ft 421 kts 304°
2026-04-24 14:57 33.81091 65.94108 34425 ft 425 kts 304°
2026-04-24 14:57 33.84780 65.88602 34432 ft 421 kts 304°
2026-04-24 14:58 33.88438 65.83132 34431 ft 425 kts 304°
2026-04-24 14:58 33.91516 65.78523 34426 ft 421 kts 304°
2026-04-24 14:59 33.95768 65.72147 34439 ft 423 kts 304°
2026-04-24 14:59 33.98859 65.67505 34437 ft 423 kts 304°
2026-04-24 15:00 34.02514 65.62009 34449 ft 425 kts 304°
2026-04-24 15:00 34.06202 65.56455 34457 ft 422 kts 304°
2026-04-24 15:01 34.09876 65.50921 34460 ft 425 kts 304°
2026-04-24 15:01 34.14171 65.44450 34464 ft 421 kts 304°
2026-04-24 15:02 34.17822 65.38940 34462 ft 423 kts 304°
2026-04-24 15:02 34.21490 65.33396 34477 ft 420 kts 303°
2026-04-24 15:03 34.24530 65.28793 34481 ft 423 kts 303°
2026-04-24 15:03 34.28196 65.23236 34478 ft 421 kts 303°
2026-04-24 15:04 34.32417 65.16825 34478 ft 423 kts 303°
2026-04-24 15:04 34.36059 65.11286 34474 ft 420 kts 303°
2026-04-24 15:05 34.39684 65.05764 34470 ft 420 kts 303°
2026-04-24 15:05 34.43324 65.00209 34466 ft 422 kts 303°
2026-04-24 15:06 34.46960 64.94653 34461 ft 419 kts 303°
2026-04-24 15:06 34.50590 64.89095 34462 ft 421 kts 303°
2026-04-24 15:07 34.54202 64.83545 34459 ft 419 kts 303°
2026-04-24 15:07 34.57205 64.78921 34439 ft 421 kts 303°
2026-04-24 15:08 34.61393 64.72467 34425 ft 420 kts 303°
2026-04-24 15:08 34.65020 64.66866 34419 ft 421 kts 303°
2026-04-24 15:09 34.68637 64.61272 34413 ft 420 kts 303°
2026-04-24 15:09 34.72215 64.55732 34393 ft 418 kts 303°
2026-04-24 15:10 34.75793 64.50181 34367 ft 419 kts 303°
2026-04-24 15:10 34.79370 64.44623 34356 ft 416 kts 303°
2026-04-24 15:11 34.82948 64.39054 34355 ft 419 kts 303°
2026-04-24 15:11 34.85926 64.34413 34339 ft 418 kts 302°
2026-04-24 15:12 34.90079 64.27931 34338 ft 418 kts 302°
2026-04-24 15:12 34.95439 64.19547 34290 ft 416 kts 302°
2026-04-24 15:13 34.98989 64.13983 34265 ft 415 kts 302°
2026-04-24 15:13 35.02521 64.08437 34227 ft 418 kts 302°
2026-04-24 15:14 35.06093 64.02823 34208 ft 415 kts 302°
2026-04-24 15:14 35.09622 63.97264 34198 ft 418 kts 302°
2026-04-24 15:15 35.13179 63.91655 34196 ft 417 kts 302°
2026-04-24 15:15 35.16723 63.86055 34182 ft 419 kts 302°
2026-04-24 15:16 35.20294 63.80404 34157 ft 420 kts 302°
2026-04-24 15:16 35.23871 63.74733 34101 ft 422 kts 302°
2026-04-24 15:17 35.27438 63.69073 34088 ft 420 kts 302°
2026-04-24 15:17 35.31005 63.63404 34093 ft 421 kts 302°
2026-04-24 15:18 35.34604 63.57710 34083 ft 424 kts 302°
2026-04-24 15:18 35.38192 63.52025 34062 ft 423 kts 302°
2026-04-24 15:19 35.41793 63.46307 34061 ft 421 kts 302°
2026-04-24 15:19 35.45384 63.40594 34047 ft 427 kts 302°
2026-04-24 15:20 35.48981 63.34867 34038 ft 421 kts 302°
2026-04-24 15:20 35.52541 63.29185 34049 ft 425 kts 302°
2026-04-24 15:21 35.56155 63.23408 34025 ft 426 kts 302°
2026-04-24 15:21 35.59742 63.17647 34016 ft 423 kts 302°
2026-04-24 15:22 35.63291 63.11859 33997 ft 427 kts 301°
2026-04-24 15:23 35.68598 63.03195 33994 ft 423 kts 302°
2026-04-24 15:23 35.73921 62.94485 33972 ft 426 kts 301°
2026-04-24 15:25 35.82200 62.80897 33968 ft 428 kts 301°
2026-04-24 15:26 35.91655 62.65316 33948 ft 425 kts 301°
2026-04-24 15:27 36.02260 62.47751 33953 ft 429 kts 302°
2026-04-24 15:29 36.12899 62.30042 33959 ft 430 kts 301°
2026-04-24 15:31 36.24728 62.10246 33955 ft 433 kts 301°
2026-04-24 15:33 36.39000 61.86206 33938 ft 437 kts 301°
2026-04-24 15:34 36.48542 61.70039 33920 ft 435 kts 301°
2026-04-24 15:35 36.56849 61.55902 33899 ft 437 kts 301°
2026-04-24 15:36 36.61012 61.48794 33881 ft 438 kts 301°
2026-04-24 15:36 36.65729 61.40611 33873 ft 438 kts 301°
2026-04-24 15:37 36.69255 61.34405 33879 ft 440 kts 300°
2026-04-24 15:37 36.73367 61.27164 33896 ft 440 kts 300°
2026-04-24 15:38 36.76908 61.20916 33858 ft 440 kts 300°
2026-04-24 15:38 36.80442 61.14670 33885 ft 444 kts 300°
2026-04-24 15:39 36.83990 61.08391 33874 ft 444 kts 300°
2026-04-24 15:39 36.87533 61.02106 33892 ft 446 kts 301°
2026-04-24 15:40 36.91104 60.95762 33861 ft 447 kts 301°
2026-04-24 15:40 36.94672 60.89411 33852 ft 445 kts 301°
2026-04-24 15:41 36.98222 60.83095 33861 ft 448 kts 303°
2026-04-24 15:41 37.02070 60.76952 33876 ft 448 kts 304°
2026-04-24 15:42 37.05918 60.70848 33866 ft 448 kts 304°
2026-04-24 15:42 37.09744 60.64742 33863 ft 450 kts 304°
2026-04-24 15:43 37.13582 60.58595 33865 ft 447 kts 304°
2026-04-24 15:43 37.17399 60.52463 33864 ft 449 kts 304°
2026-04-24 15:44 37.21221 60.46307 33865 ft 447 kts 304°
2026-04-24 15:44 37.25015 60.40183 33864 ft 446 kts 304°
2026-04-24 15:45 37.28807 60.34051 33873 ft 447 kts 303°
2026-04-24 15:45 37.32603 60.27900 33879 ft 448 kts 304°
2026-04-24 15:46 37.36407 60.21725 33883 ft 447 kts 304°
2026-04-24 15:46 37.40216 60.15528 34010 ft 453 kts 303°
2026-04-24 15:47 37.42136 60.12402 34548 ft 450 kts 304°
2026-04-24 15:47 37.44012 60.09346 35254 ft 444 kts 303°
2026-04-24 15:47 37.45881 60.06298 35602 ft 439 kts 303°
2026-04-24 15:47 37.47756 60.03235 35840 ft 441 kts 303°
2026-04-24 15:48 37.51492 59.97123 35867 ft 442 kts 303°
2026-04-24 15:48 37.55241 59.90980 35870 ft 440 kts 303°
2026-04-24 15:49 37.58348 59.85880 35858 ft 441 kts 303°
2026-04-24 15:49 37.62685 59.78749 35853 ft 440 kts 303°
2026-04-24 15:50 37.66395 59.72635 35864 ft 441 kts 303°
2026-04-24 15:50 37.69490 59.67527 35862 ft 442 kts 303°
2026-04-24 15:51 37.73815 59.60375 35869 ft 441 kts 303°
2026-04-24 15:51 37.77558 59.54174 35834 ft 442 kts 303°
2026-04-24 15:52 37.81252 59.48041 35836 ft 443 kts 303°
2026-04-24 15:52 37.84965 59.41866 35843 ft 442 kts 303°
2026-04-24 15:53 37.88677 59.35667 35858 ft 441 kts 301°
2026-04-24 15:53 37.91916 59.29174 35863 ft 437 kts 297°
2026-04-24 15:54 37.95097 59.22593 35842 ft 439 kts 297°
2026-04-24 15:54 37.98268 59.16021 35842 ft 439 kts 297°
2026-04-24 15:55 38.01439 59.09434 35836 ft 441 kts 297°
2026-04-24 15:55 38.04626 59.02801 35838 ft 440 kts 297°
2026-04-24 15:56 38.07802 58.96176 35826 ft 441 kts 297°
2026-04-24 15:56 38.10976 58.89542 35832 ft 440 kts 297°
2026-04-24 15:57 38.13609 58.84031 35838 ft 440 kts 297°
2026-04-24 15:57 38.17298 58.76289 35834 ft 440 kts 297°
2026-04-24 15:58 38.20443 58.69675 35831 ft 441 kts 297°
2026-04-24 15:58 38.23085 58.64108 35838 ft 440 kts 297°
2026-04-24 15:59 38.26749 58.56373 35840 ft 440 kts 297°
2026-04-24 15:59 38.29387 58.50792 35846 ft 441 kts 297°
2026-04-24 16:00 38.33065 58.42997 35856 ft 441 kts 297°
2026-04-24 16:00 38.36204 58.36326 35863 ft 439 kts 297°
2026-04-24 16:01 38.39346 58.29634 35865 ft 441 kts 296°
2026-04-24 16:01 38.41976 58.22677 35867 ft 438 kts 291°
2026-04-24 16:02 38.44073 58.16761 35861 ft 439 kts 290°
2026-04-24 16:02 38.46988 58.08519 35862 ft 439 kts 290°
2026-04-24 16:03 38.49486 58.01435 35858 ft 438 kts 290°
2026-04-24 16:03 38.51967 57.94384 35845 ft 438 kts 290°
2026-04-24 16:04 38.54454 57.87296 35847 ft 439 kts 290°
2026-04-24 16:04 38.56929 57.80227 35856 ft 437 kts 290°
2026-04-24 16:05 38.60652 57.69561 35851 ft 439 kts 290°
2026-04-24 16:06 38.64017 57.58774 35859 ft 436 kts 287°
2026-04-24 16:07 38.67098 57.47841 35853 ft 437 kts 287°
2026-04-24 16:07 38.70194 57.36914 35852 ft 437 kts 287°
2026-04-24 16:08 38.73293 57.25969 35857 ft 439 kts 287°
2026-04-24 16:09 38.76397 57.14980 35869 ft 438 kts 287°
2026-04-24 16:09 38.78108 57.08903 35871 ft 439 kts 287°
2026-04-24 16:11 38.83589 56.89348 35860 ft 438 kts 286°
2026-04-24 16:11 38.85292 56.83239 35844 ft 438 kts 287°
2026-04-24 16:12 38.88684 56.71038 35849 ft 438 kts 286°
2026-04-24 16:13 38.91723 56.60055 35869 ft 437 kts 286°
2026-04-24 16:14 38.95765 56.45373 35863 ft 438 kts 286°
2026-04-24 16:14 38.98799 56.34298 35852 ft 438 kts 286°
2026-04-24 16:15 39.01603 56.23185 35859 ft 438 kts 283°
2026-04-24 16:16 39.04140 56.11974 35889 ft 436 kts 283°
2026-04-24 16:17 39.08374 55.93324 35912 ft 435 kts 283°
2026-04-24 16:18 39.11745 55.78414 35893 ft 436 kts 283°
2026-04-24 16:19 39.14267 55.67200 35877 ft 436 kts 283°
2026-04-24 16:20 39.16793 55.55913 35865 ft 438 kts 283°
2026-04-24 16:20 39.19290 55.44678 35858 ft 439 kts 283°
2026-04-24 16:21 39.21783 55.33402 35850 ft 438 kts 282°
2026-04-24 16:22 39.23451 55.25827 35846 ft 439 kts 282°
2026-04-24 16:22 39.25923 55.14552 35860 ft 439 kts 282°
2026-04-24 16:23 39.27581 55.06964 35867 ft 438 kts 282°
2026-04-24 16:24 39.30035 54.95670 35866 ft 439 kts 282°
2026-04-24 16:24 39.31406 54.89341 35870 ft 439 kts 282°
2026-04-24 16:25 39.33305 54.80542 35860 ft 438 kts 282°
2026-04-24 16:25 39.34927 54.72998 35853 ft 439 kts 282°
2026-04-24 16:26 39.37094 54.62876 35849 ft 438 kts 282°
2026-04-24 16:27 39.39780 54.50261 35849 ft 439 kts 282°
2026-04-24 16:27 39.41381 54.42712 35846 ft 439 kts 282°
2026-04-24 16:28 39.42998 54.35055 35841 ft 440 kts 282°
2026-04-24 16:28 39.45395 54.23657 35851 ft 439 kts 282°
2026-04-24 16:29 39.46986 54.16059 35841 ft 439 kts 282°
2026-04-24 16:30 39.49894 54.02096 35849 ft 438 kts 282°
2026-04-24 16:30 39.51703 53.93257 35848 ft 439 kts 282°
2026-04-24 16:31 39.53253 53.85643 35843 ft 439 kts 282°
2026-04-24 16:31 39.54802 53.78008 35844 ft 438 kts 282°
2026-04-24 16:32 39.56338 53.70408 35847 ft 439 kts 282°
2026-04-24 16:32 39.57875 53.62778 35843 ft 439 kts 282°
2026-04-24 16:33 39.59154 53.56406 35845 ft 439 kts 282°
2026-04-24 16:33 39.60932 53.47510 35857 ft 440 kts 282°
2026-04-24 16:34 39.62462 53.39835 35853 ft 438 kts 282°
2026-04-24 16:34 39.63970 53.32234 35866 ft 439 kts 281°
2026-04-24 16:35 39.65480 53.24598 35864 ft 437 kts 281°
2026-04-24 16:35 39.66740 53.18207 35866 ft 438 kts 281°
2026-04-24 16:36 39.68483 53.09325 35869 ft 438 kts 281°
2026-04-24 16:36 39.69978 53.01677 35868 ft 438 kts 281°
2026-04-24 16:37 39.71468 52.94030 35865 ft 438 kts 281°
2026-04-24 16:37 39.72953 52.86371 35863 ft 439 kts 281°
2026-04-24 16:38 39.74454 52.78702 35866 ft 438 kts 282°
2026-04-24 16:38 39.75714 52.72340 35862 ft 439 kts 282°
2026-04-24 16:39 39.77474 52.63418 35860 ft 439 kts 282°
2026-04-24 16:39 39.78725 52.57045 35854 ft 438 kts 282°
2026-04-24 16:40 39.80471 52.48115 35853 ft 438 kts 282°
2026-04-24 16:40 39.81709 52.41759 35855 ft 439 kts 282°
2026-04-24 16:41 39.83455 52.32761 35865 ft 438 kts 281°
2026-04-24 16:41 39.84930 52.25127 35871 ft 437 kts 281°
2026-04-24 16:42 39.86404 52.17467 35868 ft 437 kts 281°
2026-04-24 16:42 39.87862 52.09860 35872 ft 437 kts 281°
2026-04-24 16:43 39.89084 52.03466 35874 ft 436 kts 281°
2026-04-24 16:43 39.90779 51.94555 35868 ft 438 kts 281°
2026-04-24 16:44 39.92228 51.86910 35869 ft 434 kts 281°
2026-04-24 16:44 39.93667 51.79287 35867 ft 434 kts 281°
2026-04-24 16:45 39.95099 51.71671 35867 ft 434 kts 281°
2026-04-24 16:45 39.96527 51.64042 35864 ft 434 kts 281°
2026-04-24 16:46 39.97949 51.56424 35864 ft 433 kts 281°
2026-04-24 16:46 39.99527 51.48851 35869 ft 437 kts 288°
2026-04-24 16:47 40.01940 51.41605 35864 ft 436 kts 290°
2026-04-24 16:47 40.04393 51.34398 35868 ft 436 kts 290°
2026-04-24 16:48 40.06822 51.27219 35874 ft 435 kts 289°
2026-04-24 16:48 40.09246 51.20027 35875 ft 432 kts 289°
2026-04-24 16:49 40.11664 51.12825 35879 ft 435 kts 289°
2026-04-24 16:49 40.14073 51.05631 35881 ft 431 kts 290°
2026-04-24 16:50 40.16464 50.98467 35888 ft 434 kts 289°
2026-04-24 16:50 40.18867 50.91252 35885 ft 434 kts 289°
2026-04-24 16:51 40.20863 50.85244 35878 ft 432 kts 290°
2026-04-24 16:51 40.23641 50.76907 35883 ft 431 kts 289°
2026-04-24 16:52 40.25609 50.69594 35879 ft 424 kts 278°
2026-04-24 16:52 40.26572 50.62053 35875 ft 425 kts 277°
2026-04-24 16:53 40.27496 50.54414 35877 ft 422 kts 276°
2026-04-24 16:53 40.28398 50.46901 35879 ft 423 kts 276°
2026-04-24 16:54 40.29301 50.39343 35871 ft 421 kts 276°
2026-04-24 16:54 40.30052 50.33019 35879 ft 420 kts 276°
2026-04-24 16:55 40.31089 50.24250 35881 ft 420 kts 276°
2026-04-24 16:55 40.31972 50.16722 35875 ft 420 kts 276°
2026-04-24 16:56 40.32851 50.09189 35871 ft 418 kts 276°
2026-04-24 16:56 40.33720 50.01707 35867 ft 419 kts 276°
2026-04-24 16:57 40.34591 49.94160 35872 ft 419 kts 276°
2026-04-24 16:57 40.35449 49.86678 35870 ft 419 kts 276°
2026-04-24 16:58 40.36311 49.79115 35866 ft 419 kts 276°
2026-04-24 16:58 40.37165 49.71579 35866 ft 419 kts 276°
2026-04-24 16:59 40.38011 49.64074 35859 ft 419 kts 276°
2026-04-24 17:00 40.39140 49.53980 35860 ft 420 kts 276°
2026-04-24 17:00 40.40539 49.41355 35854 ft 421 kts 276°
2026-04-24 17:01 40.41787 49.29991 35872 ft 419 kts 275°
2026-04-24 17:02 40.42883 49.19914 35871 ft 421 kts 275°
2026-04-24 17:02 40.43835 49.11102 35864 ft 422 kts 275°
2026-04-24 17:03 40.45054 48.99711 35859 ft 420 kts 275°
2026-04-24 17:04 40.45861 48.92118 35861 ft 421 kts 275°
2026-04-24 17:04 40.47060 48.80738 35873 ft 419 kts 275°
2026-04-24 17:05 40.47853 48.73153 35872 ft 421 kts 275°
2026-04-24 17:06 40.49028 48.61816 35871 ft 421 kts 275°
2026-04-24 17:06 40.50195 48.50446 35870 ft 420 kts 275°
2026-04-24 17:07 40.50966 48.42880 35862 ft 418 kts 275°
2026-04-24 17:08 40.52488 48.27779 35886 ft 417 kts 274°
2026-04-24 17:08 40.53119 48.21459 35897 ft 417 kts 274°
2026-04-24 17:09 40.54733 48.05130 35892 ft 416 kts 274°
2026-04-24 17:10 40.56197 47.90113 35900 ft 414 kts 274°
2026-04-24 17:12 40.59053 47.60179 35888 ft 414 kts 274°
2026-04-24 18:54 40.99223 32.45174 36060 ft 452 kts 297°
2026-04-24 18:55 41.03345 32.34005 36065 ft 453 kts 296°
2026-04-24 18:56 41.06089 32.26548 36061 ft 453 kts 296°
2026-04-24 18:56 41.08838 32.19056 36054 ft 453 kts 296°
2026-04-24 18:57 41.11579 32.11560 36073 ft 454 kts 296°
2026-04-24 18:57 41.13438 32.03612 36064 ft 459 kts 280°
2026-04-24 18:57 41.13828 31.99387 35800 ft 464 kts 278°
2026-04-24 18:58 41.14153 31.95190 35616 ft 459 kts 278°
2026-04-24 18:58 41.14473 31.90974 35473 ft 454 kts 278°
2026-04-24 18:58 41.14785 31.86830 35331 ft 454 kts 278°
2026-04-24 18:58 41.15093 31.82721 35175 ft 455 kts 278°
2026-04-24 18:59 41.15407 31.78503 34926 ft 456 kts 278°
2026-04-24 18:59 41.15713 31.74352 34667 ft 454 kts 278°
2026-04-24 18:59 41.15916 31.71591 34494 ft 453 kts 278°
2026-04-24 18:59 41.16317 31.66104 34087 ft 451 kts 278°
2026-04-24 19:00 41.16520 31.63305 33834 ft 451 kts 278°
2026-04-24 19:00 41.16816 31.59225 33385 ft 450 kts 279°
2026-04-24 19:00 41.17110 31.55125 32925 ft 447 kts 279°
2026-04-24 19:00 41.17405 31.51004 32459 ft 444 kts 279°
2026-04-24 19:01 41.17693 31.46965 32000 ft 441 kts 279°
2026-04-24 19:01 41.18070 31.41641 31389 ft 438 kts 280°
2026-04-24 19:01 41.18352 31.37628 30926 ft 436 kts 280°
2026-04-24 19:01 41.18633 31.33619 30460 ft 434 kts 279°
2026-04-24 19:02 41.18816 31.30983 30153 ft 432 kts 280°
2026-04-24 19:02 41.19181 31.25734 29534 ft 428 kts 279°
2026-04-24 19:02 41.19361 31.23127 29226 ft 426 kts 279°
2026-04-24 19:02 41.19627 31.19260 28764 ft 423 kts 279°
2026-04-24 19:03 41.19978 31.14128 28143 ft 417 kts 279°
2026-04-24 19:03 41.20255 31.11614 27828 ft 411 kts 286°
2026-04-24 19:03 41.20897 31.07962 27368 ft 405 kts 287°
2026-04-24 19:03 41.21561 31.04349 26904 ft 401 kts 287°
2026-04-24 19:04 41.22209 31.00822 26446 ft 397 kts 287°
2026-04-24 19:04 41.23078 30.96080 25826 ft 393 kts 287°
2026-04-24 19:04 41.23711 30.92619 25364 ft 390 kts 287°
2026-04-24 19:04 41.24142 30.90261 25052 ft 388 kts 287°
2026-04-24 19:05 41.24770 30.86816 24602 ft 386 kts 287°
2026-04-24 19:05 41.25394 30.83392 24149 ft 382 kts 287°
2026-04-24 19:05 41.26013 30.79986 23698 ft 378 kts 287°
2026-04-24 19:05 41.26622 30.76625 23237 ft 375 kts 286°
2026-04-24 19:06 41.27232 30.73257 22783 ft 371 kts 286°
2026-04-24 19:06 41.27826 30.69974 22328 ft 368 kts 286°
2026-04-24 19:06 41.28416 30.66702 21872 ft 365 kts 286°
2026-04-24 19:06 41.29006 30.63429 21424 ft 364 kts 286°
2026-04-24 19:07 41.29592 30.60170 20969 ft 363 kts 286°
2026-04-24 19:07 41.30371 30.55832 20365 ft 359 kts 286°
2026-04-24 19:07 41.30749 30.53721 20066 ft 357 kts 286°
2026-04-24 19:07 41.31504 30.49498 19475 ft 353 kts 286°
2026-04-24 19:08 41.31886 30.47359 19164 ft 351 kts 286°
2026-04-24 19:08 41.32444 30.44233 18719 ft 349 kts 286°
2026-04-24 19:08 41.33000 30.41110 18274 ft 346 kts 286°
2026-04-24 19:08 41.33551 30.38009 17836 ft 344 kts 285°
2026-04-24 19:09 41.34094 30.34948 17409 ft 343 kts 285°
2026-04-24 19:09 41.34822 30.30841 16832 ft 341 kts 285°
2026-04-24 19:09 41.35358 30.27809 16384 ft 339 kts 285°
2026-04-24 19:09 41.35896 30.24756 15943 ft 337 kts 285°
2026-04-24 19:10 41.36423 30.21766 15503 ft 335 kts 285°
2026-04-24 19:10 41.36780 30.19739 15211 ft 334 kts 285°
2026-04-24 19:10 41.37481 30.15749 14617 ft 332 kts 285°
2026-04-24 19:10 41.38000 30.12789 14182 ft 330 kts 285°
2026-04-24 19:11 41.38518 30.09827 13747 ft 328 kts 285°
2026-04-24 19:11 41.38858 30.07882 13452 ft 327 kts 285°
2026-04-24 19:11 41.39544 30.03950 12843 ft 325 kts 285°
2026-04-24 19:11 41.40051 30.01044 12514 ft 320 kts 285°
2026-04-24 19:12 41.40550 29.98173 12245 ft 322 kts 285°
2026-04-24 19:12 41.40884 29.96248 12057 ft 322 kts 285°
2026-04-24 19:12 41.41394 29.93315 11799 ft 322 kts 285°
2026-04-24 19:12 41.42055 29.89497 11427 ft 320 kts 285°
2026-04-24 19:13 41.42227 29.88500 11331 ft 320 kts 285°
2026-04-24 19:13 41.42886 29.84686 10979 ft 319 kts 285°
2026-04-24 19:13 41.43382 29.81809 10688 ft 318 kts 285°
2026-04-24 19:13 41.44035 29.78012 10325 ft 317 kts 285°
2026-04-24 19:14 41.44528 29.75147 10057 ft 316 kts 285°
2026-04-24 19:14 41.45017 29.72293 9770 ft 315 kts 285°
2026-04-24 19:14 41.45334 29.70442 9586 ft 311 kts 285°
2026-04-24 19:14 41.45810 29.67658 9310 ft 305 kts 285°
2026-04-24 19:15 41.46276 29.64922 9046 ft 299 kts 285°
2026-04-24 19:15 41.46879 29.61383 8666 ft 292 kts 285°
2026-04-24 19:15 41.47323 29.58772 8392 ft 287 kts 285°
2026-04-24 19:15 41.47610 29.57078 8214 ft 284 kts 285°
2026-04-24 19:16 41.48468 29.52017 7661 ft 276 kts 285°
2026-04-24 19:16 41.48886 29.49547 7383 ft 272 kts 285°
2026-04-24 19:16 41.49300 29.47098 7111 ft 270 kts 286°
2026-04-24 19:17 41.49712 29.44658 6832 ft 270 kts 285°
2026-04-24 19:17 41.50125 29.42213 6551 ft 269 kts 286°
2026-04-24 19:17 41.50669 29.38988 6182 ft 268 kts 285°
2026-04-24 19:17 41.51075 29.36572 5906 ft 268 kts 285°
2026-04-24 19:18 41.51481 29.34157 5631 ft 267 kts 284°
2026-04-24 19:18 41.51754 29.32531 5447 ft 267 kts 284°
2026-04-24 19:18 41.52158 29.30121 5167 ft 266 kts 284°
2026-04-24 19:18 41.52688 29.26951 4794 ft 265 kts 284°
2026-04-24 19:19 41.52956 29.25346 4606 ft 263 kts 284°
2026-04-24 19:19 41.53479 29.22216 4239 ft 260 kts 284°
2026-04-24 19:19 41.53743 29.20630 4065 ft 258 kts 284°
2026-04-24 19:19 41.54246 29.17599 3999 ft 244 kts 283°
2026-04-24 19:20 41.54486 29.16158 4000 ft 243 kts 284°
2026-04-24 19:20 41.54973 29.13228 3998 ft 242 kts 284°
2026-04-24 19:20 41.55212 29.11782 3999 ft 241 kts 284°
2026-04-24 19:20 41.55697 29.08854 3996 ft 241 kts 284°
2026-04-24 19:21 41.55937 29.07407 3994 ft 238 kts 284°
2026-04-24 19:21 41.56285 29.05298 4009 ft 231 kts 284°
2026-04-24 19:21 41.56747 29.02500 3996 ft 232 kts 284°
2026-04-24 19:21 41.57092 29.00407 3998 ft 232 kts 284°
2026-04-24 19:22 41.57325 28.98996 3997 ft 231 kts 284°
2026-04-24 19:22 41.57668 28.96912 3996 ft 231 kts 284°
2026-04-24 19:22 41.57986 28.94801 3996 ft 231 kts 280°
2026-04-24 19:22 41.58194 28.92715 3996 ft 224 kts 278°
2026-04-24 19:23 41.58479 28.90001 3993 ft 220 kts 287°
2026-04-24 19:23 41.58935 28.88792 3986 ft 218 kts 309°
2026-04-24 19:23 41.60148 28.87669 3981 ft 216 kts 343°
2026-04-24 19:23 41.61627 28.87657 3977 ft 215 kts 16°
2026-04-24 19:24 41.62986 28.88494 3992 ft 216 kts 26°
2026-04-24 19:24 41.64326 28.89410 3995 ft 217 kts 26°
2026-04-24 19:24 41.65667 28.90322 3994 ft 217 kts 26°
2026-04-24 19:24 41.67018 28.91240 3994 ft 217 kts 26°
2026-04-24 19:25 41.68366 28.92156 3995 ft 217 kts 26°
2026-04-24 19:25 41.70150 28.93370 3997 ft 217 kts 26°
2026-04-24 19:25 41.71044 28.93980 3999 ft 216 kts 26°
2026-04-24 19:25 41.72833 28.95200 4005 ft 217 kts 26°
2026-04-24 19:26 41.74178 28.96117 4008 ft 217 kts 26°
2026-04-24 19:26 41.75079 28.96730 4007 ft 216 kts 26°
2026-04-24 19:26 41.76421 28.97642 4006 ft 216 kts 26°
2026-04-24 19:26 41.77715 28.98619 4001 ft 216 kts 38°
2026-04-24 19:27 41.78546 29.00304 3990 ft 220 kts 72°
2026-04-24 19:27 41.78331 29.02983 3993 ft 225 kts 113°
2026-04-24 19:27 41.77855 29.04227 4003 ft 228 kts 116°
2026-04-24 19:27 41.76860 29.06775 4019 ft 235 kts 116°
2026-04-24 19:28 41.76356 29.08074 4008 ft 235 kts 116°
2026-04-24 19:28 41.75597 29.10030 4007 ft 236 kts 116°
2026-04-24 19:28 41.74837 29.11982 4008 ft 236 kts 116°
2026-04-24 19:28 41.73774 29.14523 4000 ft 236 kts 127°
2026-04-24 19:29 41.71370 29.16070 3991 ft 239 kts 180°
2026-04-24 19:29 41.69797 29.15483 3993 ft 237 kts 211°
2026-04-24 19:29 41.68298 29.13389 4005 ft 236 kts 233°
2026-04-24 19:30 41.67643 29.12234 4006 ft 235 kts 234°
2026-04-24 19:30 41.66656 29.10487 4007 ft 235 kts 234°
2026-04-24 19:30 41.65668 29.08736 4007 ft 236 kts 234°
2026-04-24 19:30 41.64675 29.06979 4007 ft 236 kts 234°
2026-04-24 19:31 41.63689 29.05233 4006 ft 236 kts 234°
2026-04-24 19:31 41.62700 29.03486 4006 ft 236 kts 234°
2026-04-24 19:31 41.61701 29.01719 4008 ft 236 kts 234°
2026-04-24 19:31 41.60387 28.99398 4005 ft 235 kts 234°
2026-04-24 19:32 41.59399 28.97655 4006 ft 235 kts 234°
2026-04-24 19:32 41.58703 28.95714 4000 ft 233 kts 260°
2026-04-24 19:32 41.58808 28.93609 3994 ft 230 kts 288°
2026-04-24 19:32 41.59221 28.92284 4003 ft 230 kts 297°
2026-04-24 19:33 41.59958 28.90414 4009 ft 229 kts 300°
2026-04-24 19:33 41.60740 28.88559 4008 ft 229 kts 301°
2026-04-24 19:33 41.61528 28.86699 4007 ft 229 kts 301°
2026-04-24 19:33 41.62571 28.84234 4007 ft 229 kts 301°
2026-04-24 19:34 41.63348 28.82381 4000 ft 225 kts 298°
2026-04-24 19:34 41.63670 28.81081 3997 ft 223 kts 281°
2026-04-24 19:34 41.63276 28.78409 3985 ft 225 kts 240°
2026-04-24 19:34 41.62172 28.76915 3991 ft 226 kts 217°
2026-04-24 19:35 41.60851 28.75804 3995 ft 227 kts 211°
2026-04-24 19:35 41.59373 28.75109 3991 ft 227 kts 187°
2026-04-24 19:35 41.57791 28.75040 3998 ft 223 kts 180°
2026-04-24 19:35 41.56275 28.75077 3997 ft 216 kts 178°
2026-04-24 19:36 41.54777 28.75132 3988 ft 212 kts 179°
2026-04-24 19:36 41.53797 28.75160 3942 ft 211 kts 179°
2026-04-24 19:36 41.51820 28.75204 3993 ft 213 kts 179°
2026-04-24 19:36 41.50848 28.75221 3998 ft 212 kts 179°
2026-04-24 19:37 41.48879 28.75253 4000 ft 212 kts 179°
2026-04-24 19:37 41.47379 28.75277 3948 ft 215 kts 179°
2026-04-24 19:37 41.45892 28.75303 3658 ft 213 kts 179°
2026-04-24 19:37 41.44435 28.75329 3384 ft 208 kts 179°
2026-04-24 19:38 41.43000 28.75356 3111 ft 204 kts 179°
2026-04-24 19:38 41.42054 28.75373 2929 ft 201 kts 179°
2026-04-24 19:38 41.40208 28.75408 2575 ft 196 kts 179°
2026-04-24 19:38 41.38861 28.75433 2316 ft 193 kts 179°
2026-04-24 19:39 41.37989 28.75449 2145 ft 183 kts 179°
2026-04-24 19:39 41.36366 28.75480 1831 ft 167 kts 179°
2026-04-24 19:39 41.35229 28.75501 1607 ft 158 kts 179°
2026-04-24 19:39 41.34170 28.75521 1398 ft 150 kts 179°
2026-04-24 19:40 41.33171 28.75545 1205 ft 141 kts 179°
2026-04-24 19:40 41.32182 28.75575 949 ft 139 kts 179°
2026-04-24 19:40 41.31551 28.75589 819 ft 136 kts 180°
2026-04-24 19:40 41.30601 28.75604 655 ft 136 kts 180°
2026-04-24 19:41 41.29653 28.75622 470 ft 136 kts 180°
2026-04-24 19:41 41.28442 28.75628 340 ft 113 kts 179°
2026-04-24 19:41 41.27985 28.75637 340 ft 83 kts 179°
2026-04-24 19:41 41.27435 28.75649 340 ft 39 kts 179°
2026-04-24 19:42 41.27235 28.75642 340 ft 25 kts 191°
2026-04-24 19:42 41.27083 28.75571 340 ft 21 kts 204°
2026-04-24 19:42 41.26978 28.75497 340 ft 11 kts 209°
2026-04-24 19:42 41.26942 28.75471 340 ft 0 kts 209°
2026-04-24 19:43 41.26937 28.75467 340 ft 3 kts 209°
2026-04-24 19:44 41.26917 28.75452 340 ft 6 kts 213°
2026-04-24 19:44 41.26900 28.75429 340 ft 0 kts 235°
2026-04-24 19:44 41.26886 28.75386 340 ft 8 kts 260°
2026-04-24 19:44 41.26881 28.75308 340 ft 6 kts 268°
2026-04-24 19:45 41.26880 28.75275 340 ft 5 kts 268°
2026-04-24 19:45 41.26879 28.75230 340 ft 4 kts 268°
2026-04-24 19:45 41.26878 28.75185 340 ft 5 kts 269°
2026-04-24 19:45 41.26877 28.75135 340 ft 4 kts 270°
2026-04-24 19:46 41.26877 28.75134 340 ft 0 kts 270°
2026-04-24 19:47 41.26877 28.75133 340 ft 0 kts 270°
2026-04-24 19:47 41.26877 28.75112 340 ft 4 kts 270°
2026-04-24 19:47 41.26878 28.75032 340 ft 7 kts 270°
2026-04-24 19:48 41.26876 28.74963 340 ft 7 kts 263°
2026-04-24 19:48 41.26861 28.74920 340 ft 2 kts 225°
2026-04-24 19:48 41.26842 28.74909 340 ft 1 kts 191°
2026-04-24 19:49 41.26817 28.74907 340 ft 2 kts 182°
2026-04-24 19:49 41.26786 28.74908 340 ft 0 kts 179°